Location: EverStaR Observatory
(38.9036°N, 94.8303°W)
Time: 11:05:49
(UTC-05:00)

Hubble Space Telescope - Pass Details

Date: 27 March 2019
Orbit: 537 x 540 km, 28.5° (Epoch: 25 April)

Event Time Altitude Azimuth Distance (km) Brightness Sun altitude
Rises 21:03:49 0° 241° (WSW) 2,673 5.0 -17.2°
Reaches altitude 10° 21:06:34 10° 223° (SW) 1,783 3.7 -17.7°
Maximum altitude 21:09:30 19° 177° (S) 1,315 2.5 -18.2°
Enters shadow 21:09:43 19° 173° (S) 1,318 2.5 -18.2°
